Location: Camden Lake
(44.4269°N, 76.8469°W)
Time: 05:23:28
(UTC-05:00)

Daily predictions for brighter satellites

Satellite Brightness Start Highest point End
(mag) Time Altitude Azimuth Time Altitude Azimuth Time Altitude Azimuth
ATLAS CENTAUR R/B 4.1 03:20:02 46° ESE 03:20:02 46° ESE 03:29:03 10° SE
USA 234 4.4 03:17:18 10° ENE 03:22:52 34° ESE 03:22:52 34° ESE
ADEOS II 3.8 03:22:21 10° NE 03:26:18 29° E 03:26:18 29° E
ADEOS Rocket 4.2 03:22:06 10° N 03:26:05 37° N 03:26:05 37° N
Lacrosse 5 4.1 03:30:46 20° E 03:30:46 20° E 03:33:21 10° ENE
Okean O Rocket 4.2 03:34:40 10° NNE 03:35:32 15° NNE 03:35:32 15° NNE
Cosmos 2369 Rocket 3.1 03:43:44 46° NE 03:43:44 46° NE 03:47:52 10° NNE
Cosmos 2266 Rocket 4.1 03:48:11 10° N 04:02:24 - SSE 03:53:55 67° NE
Cosmos 1867 4.0 04:11:34 54° N 04:11:34 54° N 04:15:53 10° NNE
IRS-1C Rocket 4.4 04:08:24 10° NNE 04:12:43 61° NNE 04:12:43 61° NNE
Cosmos 1190 Rocket 4.2 04:17:02 63° SE 04:17:02 63° SE 04:21:31 10° SSE
Lacrosse 5 rocket 3.7 04:21:15 14° NNE 04:21:15 14° NNE 04:22:54 10° NE
ATLAS 5 CENTAUR R/B 1.9 04:22:37 73° E 04:22:37 73° E 04:27:32 10° NE
Sich 1 Rocket 4.1 04:18:34 10° N 04:23:05 59° E 04:27:30 10° SSE
ERS-2 4.2 04:21:48 10° NNE 04:23:21 23° NNE 04:23:21 23° NNE
Cosmos 1908 Rocket 4.0 04:21:24 10° N 04:25:51 60° E 04:30:16 10° SSE
Cosmos 2263 4.0 04:27:19 80° WSW 04:27:32 83° WNW 04:33:11 10° NNE
MOS 1 Rocket 4.4 04:23:17 10° N 04:26:58 39° NNW 04:26:58 39° NNW
Cosmos 1943 Rocket 2.2 04:28:16 52° S 04:29:34 74° ESE 04:35:07 10° NNE
CZ-4B R/B 3.1 04:24:12 10° N 04:29:48 74° WNW 04:30:06 72° WSW
Okean-O 3.4 04:28:45 10° NNE 04:33:05 51° E 04:35:44 22° SSE
Cosmos 1624 Rocket 3.9 04:33:05 76° WNW 04:33:07 76° WNW 04:38:28 10° NNE
Cosmos 2056 Rocket 3.3 04:34:28 79° WNW 04:34:31 79° WNW 04:39:45 10° NNE
Tiangong 1 3.8 04:36:11 15° ESE 04:36:11 15° ESE 04:37:04 10° ESE
CZ-4C R/B 3.5 04:33:26 14° S 04:37:23 36° ESE 04:42:41 10° NE
Cosmos 1954 Rocket 4.4 04:38:01 10° NNW 04:43:19 66° ENE 04:48:37 10° SSE
Okean 2 Rocket 3.9 04:49:41 10° N 04:53:59 52° ENE 04:58:16 10° SSE
Meteor 1-26 Rocket 4.2 04:54:32 10° S 05:00:14 88° E 05:05:53 10° N
Thor Agena Rocket 3.4 04:59:23 10° S 05:04:36 73° WSW 05:09:47 10° NNW
S3M 4.4 04:59:16 10° S 05:05:33 67° E 05:11:47 10° NNE
USA 234 3.2 04:59:57 10° NE 05:06:30 76° NW 05:10:14 28° WSW
ADEOS II 2.6 05:01:55 10° N 05:06:45 38° WNW 05:07:16 37° W
Cosmos 1703 Rocket 3.4 05:04:08 19° SSW 05:07:11 75° W 05:11:34 10° N
RUBIN 8/PSLV 4.5 05:02:58 10° N 05:07:20 64° WNW 05:09:27 29° SSW
Cosmos 972 4.3 05:07:46 25° SSW 05:10:39 67° WNW 05:15:52 10° NNE
Lacrosse 5 1.8 05:10:00 37° WSW 05:11:59 71° NW 05:17:05 10° NE
Cosmos 1553 Rocket 4.1 05:07:16 10° S 05:13:25 79° E 05:19:44 10° N
Meteor 1-31 Rocket 2.8 05:09:49 10° N 05:13:39 57° WNW 05:14:57 36° SW
Okean O Rocket 3.6 05:11:55 10° NNW 05:13:01 14° NNW 05:13:01 14° NNW
Cosmos 1452 Rocket 3.4 05:10:36 10° SSW 05:15:53 81° WNW 05:21:13 10° NNE
SJ-6F 4.3 05:12:56 10° N 05:17:06 81° WNW 05:21:13 10° SSW
Cosmos 2219 3.2 05:14:31 10° NNW 05:20:15 85° ENE 05:25:54 10° SSE
Cosmos 1023 Rocket 4.4 05:16:43 10° NNW 05:21:58 77° WSW 05:27:13 10° SSE
Cosmos 1741 Rocket 4.2 05:20:32 10° NNW 05:25:47 72° ENE 05:31:02 10° SSE
Cosmos 2369 Rocket 3.3 05:25:33 23° WNW 05:26:44 24° NW 05:31:17 10° N
Cosmos 2227 Rocket 3.8 05:21:50 10° N 05:27:01 34° NE 05:32:09 10° ESE
Feng Yun 1-1 Rocket 4.4 05:23:38 10° N 05:29:21 56° WNW 05:35:07 10° SW
Cosmos 407 Rocket 4.3 05:28:00 17° NW 05:31:01 28° W 05:35:29 10° SSW
COSMO-SKYMED 1 2.5 05:28:31 10° S 05:32:50 69° WSW 05:37:11 10° NNW
ATLAS 3B R/B 4.0 05:25:56 10° S 05:33:04 46° ESE 05:39:59 10° NE
Cosmos 2221 Rocket 3.8 05:30:47 10° SSW 05:35:12 49° WNW 05:39:39 10° N
Cosmos 1656 Rocket 3.6 05:30:31 10° SSW 05:36:12 71° WNW 05:41:54 10° NNE
USA 81 4.1 05:36:28 10° S 05:41:44 88° E 05:47:03 10° N
Cosmos 1140 Rocket 3.9 05:47:16 10° NW 05:52:10 41° WSW 05:57:03 10° S
Abrixas 3.4 05:50:43 19° WNW 05:52:19 35° N 05:55:01 10° ENE
Okean 1-7 3.8 05:56:35 10° SW 06:00:21 30° WNW 06:04:09 10° NNW
Cosmos 1745 Rocket 4.1 05:55:08 10° NNW 06:01:03 50° W 06:06:54 10° SSW
Lacrosse 5 rocket 2.2 05:57:37 10° NW 06:01:03 39° NE 06:04:27 10° ESE
Cosmos 614 Rocket 4.2 05:56:22 10° NNW 06:01:12 45° WSW 06:06:03 10° S
Radarsat Rocket 4.4 05:55:38 10° N 06:02:58 61° WNW 06:09:23 10° SW
Meteor 1-27 Rocket 4.1 06:01:17 10° S 06:07:01 74° E 06:12:54 10° NNE
ATLAS 5 CENTAUR R/B 3.3 06:04:11 12° W 06:07:39 23° NNW 06:11:53 10° NNE
Cosmos 1386 Rocket 4.5 06:01:55 10° NNW 06:07:49 57° W 06:13:46 10° S
Okean-O 4.1 06:06:12 10° NNW 06:09:12 18° WNW 06:12:11 10° WSW
CZ-2C R/B 3.2 06:04:45 10° NNE 06:09:35 58° E 06:14:32 10° S
Tiangong 1 1.4 06:07:42 11° WSW 06:10:27 54° S 06:13:21 10° E
Cosmos 1633 2.5 06:07:37 10° N 06:11:16 84° W 06:14:53 10° S
Cosmos 1943 Rocket 3.5 06:09:53 10° W 06:13:56 20° NW 06:18:01 10° N
PAYLOAD A 3.8 06:10:19 10° NNE 06:15:03 86° WNW 06:19:53 10° SSW
Meteor 1-28 Rocket 4.1 06:12:03 10° SSW 06:15:18 28° W 06:18:35 10° NW
Cosmos 1850 Rocket 4.5 06:12:07 10° NW 06:17:05 40° WSW 06:21:59 10° S
Cosmos 1300 Rocket 3.5 06:15:20 10° N 06:19:48 82° W 06:24:12 10° S
Cosmos 1782 3.5 06:18:18 10° SW 06:21:50 31° WNW 06:25:25 10° N
IDEFIX/ARIANE 42P 2.8 06:18:09 10° NNE 06:23:26 80° ESE 06:28:37 10° S
CZ-4C R/B 2.7 06:20:37 10° WSW 06:25:46 42° NW 06:31:38 10° NNE
Cosmos 2082 3.9 06:20:59 10° NNW 06:26:42 82° ENE 06:32:21 10° SSE
